GFSWCAN_850_rhum_048.txt.gz
RH
93 88 89 90 93 96 98 98 95 98 98 97 98 98 99 99 99 99 100 99 99 99 98 98 90 88 98 89 97 75 83 88 97 99 96 95 98 80 74 79 91 89 96 91 85 97 87 50 70 64 57 47 48 50
95 90 93 97 98 99 98 95 90 85 90 90 92 95 95 96 98 99 100 99 100 98 99 95 88 85 75 71 65 67 63 76 76 91 93 89 94 95 79 89 77 87 78 88 82 76 58 58 63 50 54 50 54 60
96 99 100 100 97 98 98 99 100 99 100 100 99 99 84 80 89 98 100 98 99 100 100 100 95 91 90 92 75 74 65 55 62 56 89 88 80 90 89 89 73 74 64 81 76 57 59 44 42 45 51 52 53 52
99 99 99 99 99 98 100 94 93 92 96 100 100 100 99 90 94 99 100 99 93 100 99 95 86 68 53 60 69 74 73 60 60 64 77 92 90 70 87 67 77 66 69 72 66 54 63 44 60 76 66 58 61 57
100 98 98 98 99 98 99 94 94 93 89 89 91 98 95 89 92 99 100 99 92 77 94 79 68 60 73 75 71 75 81 71 73 84 96 88 81 77 86 82 79 88 90 88 82 98 98 92 79 83 75 70 79 71
100 94 92 96 99 95 97 98 98 92 89 91 91 84 92 90 94 100 99 100 100 84 93 97 72 68 53 65 74 84 95 88 83 96 91 71 61 64 94 100 92 93 94 97 94 91 94 96 98 89 82 67 69 82
97 99 98 96 98 98 86 90 96 99 95 95 90 84 92 93 100 99 95 90 98 99 98 95 94 86 70 60 64 80 75 91 97 94 93 88 85 75 97 98 96 99 100 96 100 98 94 100 99 96 87 67 75 79
95 93 97 98 98 98 99 99 100 98 90 95 90 90 99 100 100 100 89 72 99 100 99 99 98 99 99 96 93 82 85 95 99 99 97 93 98 96 99 90 94 92 90 92 100 99 100 100 97 92 97 83 82 86
96 93 100 100 100 100 97 99 100 93 100 99 99 100 100 100 100 100 95 100 100 89 99 100 98 98 99 91 86 81 84 99 98 99 98 88 97 97 96 95 96 99 100 100 98 99 100 100 100 98 96 90 97 100
92 94 100 100 100 100 99 100 98 99 100 100 100 99 100 99 96 98 100 99 99 97 100 100 98 100 98 100 100 98 98 99 99 100 97 96 96 98 99 95 98 98 100 100 100 99 99 100 100 100 98 100 100 100
99 100 100 99 99 99 100 100 100 90 97 94 97 99 100 99 96 100 99 98 99 99 100 99 99 100 98 99 99 94 98 99 98 100 92 96 94 91 99 100 100 100 100 98 98 97 97 98 99 97 96 98 96 99
100 97 98 100 100 100 96 96 99 97 96 92 97 99 94 97 98 98 98 99 98 96 99 99 100 100 100 98 96 97 97 94 97 97 93 96 95 99 97 100 98 99 97 95 96 96 96 96 96 96 95 96 96 96
100 98 95 93 90 95 97 98 86 84 79 80 81 77 68 79 87 91 95 96 97 98 97 100 99 100 97 98 99 92 94 97 88 94 94 96 94 98 100 94 96 96 95 95 95 96 96 95 96 93 95 96 96 96
98 96 91 87 83 79 76 70 69 59 54 56 72 92 91 95 97 97 98 97 97 98 99 100 97 99 99 97 99 96 97 85 94 95 97 95 98 100 96 97 95 96 96 96 95 96 96 95 95 95 95 96 95 95
96 84 74 73 62 55 51 49 44 42 51 76 74 99 96 96 96 96 97 97 97 98 98 100 95 88 98 96 95 92 89 100 96 98 98 98 97 96 96 96 96 97 96 96 96 96 96 96 94 95 96 96 96 96
79 75 73 77 72 68 64 47 40 45 66 72 84 92 89 94 92 92 94 95 96 97 98 98 97 92 97 95 87 99 88 98 97 98 98 96 96 96 96 96 96 96 96 95 95 95 96 95 95 95 96 95 95 95
80 84 79 78 72 65 55 42 46 68 81 87 97 96 97 97 97 96 98 96 96 97 97 94 92 98 83 90 92 93 99 97 97 98 96 96 95 96 96 96 96 95 95 96 95 95 94 96 96 95 92 96 93 92
85 88 86 77 66 53 42 50 62 74 94 95 94 98 96 96 96 95 96 96 96 96 95 95 72 90 98 92 96 96 96 99 96 96 96 96 95 95 95 95 96 96 95 95 95 95 94 88 85 90 87 84 77 75
92 97 82 80 76 53 57 62 57 94 96 95 94 95 95 96 96 96 95 96 92 86 81 77 91 95 98 94 93 97 98 97 97 96 96 96 96 96 96 96 95 94 94 94 94 91 90 89 88 86 83 76 68 75
100 96 79 77 63 56 78 76 60 77 94 89 92 95 92 94 92 81 67 70 73 80 87 92 95 96 96 96 96 95 96 95 94 95 96 97 97 95 94 93 93 94 93 95 93 93 90 84 85 84 79 76 67 68
86 82 77 66 73 74 73 70 80 76 81 76 80 74 61 64 78 78 77 63 70 96 94 96 98 96 95 95 93 91 94 94 88 84 94 97 97 95 95 93 83 76 68 66 58 57 51 52 62 66 59 53 56 55
62 56 54 54 65 62 60 78 78 81 72 80 72 60 68 82 82 76 66 85 97 100 97 100 98 96 95 96 96 95 94 94 93 93 95 95 88 70 64 61 52 42 37 40 44 45 49 61 76 76 70 60 60 50
48 48 49 57 66 78 95 98 91 92 93 95 80 72 83 72 70 68 91 96 96 98 97 96 96 95 92 98 95 96 97 96 93 88 79 70 64 59 51 46 48 46 41 46 51 49 41 45 59 77 81 78 77 69
53 64 70 69 66 98 74 75 68 74 77 90 94 99 91 74 60 78 97 97 98 97 96 96 96 95 96 94 87 87 85 74 65 63 63 54 50 51 50 46 51 52 54 60 59 56 54 51 54 62 69 76 66 60
57 89 76 91 75 80 92 93 93 91 99 97 95 99 95 68 96 100 100 97 97 96 95 95 92 86 79 85 89 88 88 81 74 68 75 77 66 56 56 54 54 54 55 71 69 62 60 57 59 59 57 54 53 53
94 98 95 99 96 92 96 100 97 96 98 100 100 87 70 93 96 100 99 93 96 94 90 82 76 77 82 82 82 88 87 88 82 70 70 73 72 68 68 64 58 48 52 51 54 57 62 63 63 60 57 56 53 59
98 99 89 91 89 84 92 84 84 92 99 99 99 95 91 99 100 100 100 99 94 93 94 92 92 84 78 78 66 56 52 47 44 42 48 48 41 33 34 40 48 50 52 53 54 55 53 51 49 49 50 50 56 63
82 77 90 92 87 88 100 99 100 100 99 95 81 99 99 96 98 100 100 99 91 90 84 78 71 72 70 64 69 64 49 53 48 52 51 56 54 40 38 38 39 44 48 51 57 61 64 60 62 60 62 62 64 68
82 79 68 100 93 96 100 100 100 100 100 88 100 100 100 99 100 100 100 98 98 96 91 84 84 85 77 66 55 40 32 41 60 60 56 59 61 50 42 39 39 40 42 45 49 51 55 52 57 58 59 62 64 66
82 79 90 94 99 100 100 100 100 100 98 95 96 100 99 100 100 100 100 100 100 100 100 92 81 88 87 70 46 36 38 39 35 34 32 34 37 36 36 36 37 39 40 44 45 48 51 52 52 54 59 65 67 69
78 78 89 93 99 98 95 98 97 93 91 95 91 95 98 100 100 100 100 99 98 96 93 92 92 92 88 80 58 34 34 35 33 32 31 32 34 35 36 37 37 38 39 41 43 46 47 48 48 49 51 53 53 53
80 85 88 100 99 97 100 85 81 85 84 85 89 89 91 88 97 100 100 100 100 95 96 96 95 92 82 52 33 32 32 31 32 32 33 34 36 37 39 39 38 37 39 42 44 44 45 46 47 47 46 45 42 39
82 74 84 95 100 100 97 95 93 97 95 100 100 99 96 92 98 100 98 98 100 100 100 97 95 74 34 32 33 34 34 36 36 35 37 40 40 42 41 39 39 41 42 42 43 45 46 46 44 40 36 35 37 38

GFSWCAN_850_rhum_051.txt.gz
RH
98 99 99 98 91 86 86 87 91 96 95 97 99 99 99 78 77 95 98 99 99 98 98 84 70 86 93 100 98 83 97 98 99 96 90 86 88 73 62 72 75 71 77 81 79 94 84 48 64 62 46 51 56 53
99 99 94 94 93 88 86 87 94 98 99 99 98 98 95 87 93 98 100 99 99 100 98 83 79 84 69 59 78 83 69 86 90 84 85 78 88 86 70 71 75 78 68 72 71 65 54 54 61 50 64 69 66 67
98 99 98 93 98 98 99 99 99 99 99 99 96 99 98 98 98 99 100 99 99 99 99 99 98 78 81 85 77 90 72 68 75 61 83 82 79 79 84 77 69 71 66 70 68 51 50 49 52 78 75 89 83 71
99 100 99 99 99 98 99 99 98 99 99 100 99 95 99 99 99 99 99 99 99 98 99 99 98 84 77 88 97 90 70 66 67 81 89 88 83 68 75 61 70 56 66 69 65 53 63 58 91 95 86 78 76 74
95 98 89 86 91 96 100 99 97 98 98 98 92 100 98 96 97 99 99 98 96 82 96 90 76 75 88 97 88 80 88 79 73 93 99 98 80 80 82 76 69 67 66 74 65 94 95 86 89 100 98 91 86 82
99 98 94 98 96 98 99 96 96 95 97 98 99 95 100 100 99 99 100 99 100 99 99 98 64 65 60 73 71 71 88 88 86 98 99 91 64 75 88 82 83 94 94 93 85 99 93 98 98 97 96 93 93 89
98 94 93 96 98 98 99 96 96 99 92 92 94 97 99 99 100 98 97 94 96 100 96 92 81 78 68 68 84 95 92 93 98 98 99 98 91 77 100 92 91 88 93 96 100 98 93 99 98 99 94 94 93 88
94 99 100 100 98 99 98 99 94 96 94 88 88 93 99 100 100 100 99 100 100 98 99 97 94 98 96 96 95 80 100 100 100 100 100 91 92 99 100 90 90 92 93 92 100 100 100 100 99 99 96 95 93 88
98 100 100 100 99 96 95 99 98 92 94 96 89 99 100 100 99 100 99 100 100 93 99 96 95 91 99 88 70 85 82 100 92 99 100 98 97 97 94 93 97 100 100 100 100 98 100 100 99 99 100 100 100 100
100 100 100 100 99 99 100 100 100 100 100 100 100 98 100 100 99 99 100 99 99 98 100 94 93 98 99 96 98 96 98 100 100 100 95 92 93 99 100 100 100 100 100 100 98 94 97 100 99 99 100 100 100 100
98 100 100 100 95 98 99 100 100 100 99 98 100 100 100 99 98 97 98 96 99 98 98 98 98 96 99 100 98 94 98 99 99 100 94 91 89 90 99 100 100 99 96 98 96 96 96 96 96 96 95 95 96 96
92 98 100 100 91 92 96 80 88 83 91 94 96 99 96 92 96 94 98 97 97 94 100 98 98 99 100 100 100 98 97 97 95 93 84 92 89 95 100 100 100 100 96 95 96 96 97 96 95 95 95 96 95 96
99 96 100 100 99 99 99 91 80 77 72 70 64 71 66 77 86 91 97 96 95 95 98 100 100 99 100 100 100 92 92 94 80 87 90 89 89 95 100 100 100 98 96 95 95 95 96 95 96 95 95 96 95 95
91 89 84 80 83 54 74 73 64 66 45 54 71 88 89 93 94 96 95 95 97 98 98 99 98 98 98 92 94 90 96 80 90 89 93 87 93 100 100 100 100 97 95 95 96 96 95 95 95 95 96 96 96 96
77 76 66 66 66 59 45 48 56 50 50 72 72 99 95 96 96 96 98 97 96 97 98 99 88 87 93 91 90 86 86 94 89 93 92 97 100 100 100 98 96 95 95 95 96 96 96 95 95 95 95 95 95 96
78 74 70 70 67 64 55 41 41 47 67 73 85 92 91 94 94 93 94 95 97 97 98 86 93 91 94 90 84 98 82 93 93 93 99 100 97 97 96 96 95 95 95 95 95 95 95 95 95 95 96 96 95 96
76 83 69 61 50 47 45 40 48 67 79 85 96 94 97 96 97 96 96 95 96 96 96 90 90 98 70 83 90 87 94 94 96 100 97 96 95 96 95 95 95 95 95 95 95 96 95 96 96 96 92 96 92 90
89 86 78 66 65 54 39 49 60 71 95 96 93 97 96 96 97 95 96 97 96 98 94 88 72 86 94 89 94 91 95 98 96 96 96 96 96 96 95 95 95 95 96 96 96 96 95 86 78 81 78 76 71 71
91 81 74 75 61 45 54 59 59 93 97 96 95 94 95 96 96 96 96 96 95 90 90 91 86 89 92 93 93 96 96 97 97 97 96 96 96 95 95 96 95 95 95 95 90 85 82 78 77 75 71 66 58 66
86 71 75 73 50 49 71 66 61 77 91 92 95 96 94 96 96 96 95 96 77 79 84 88 92 96 96 98 96 95 95 95 91 94 96 96 96 96 95 95 95 96 90 87 81 77 72 67 70 72 68 63 60 58
67 63 60 52 58 63 78 75 74 71 93 95 83 83 85 73 80 85 90 69 73 91 90 96 97 96 96 95 95 94 94 94 93 89 94 96 96 96 94 82 74 68 60 58 50 50 47 49 59 63 57 48 48 49
56 53 54 55 56 58 61 72 72 76 72 74 80 58 69 82 86 83 66 87 95 100 97 98 98 97 96 97 97 95 96 94 95 94 95 94 85 63 57 52 45 37 38 42 47 55 66 77 87 83 69 58 61 53
50 49 54 60 74 76 94 98 92 88 91 94 70 71 80 78 72 65 94 96 97 98 97 96 96 95 94 99 94 97 97 93 89 81 72 62 54 49 44 42 44 44 44 50 55 57 58 69 76 80 76 73 72 68
54 61 64 66 70 100 80 79 72 80 80 90 90 96 92 81 64 78 93 97 98 97 96 97 96 95 95 94 88 86 81 68 56 57 58 52 45 44 46 44 45 44 43 46 50 50 50 53 60 64 63 63 59 56
52 86 79 95 78 82 92 92 93 89 100 98 96 99 94 67 92 97 97 98 96 96 97 97 95 82 69 73 75 76 76 73 66 58 61 64 52 46 47 47 46 50 52 51 54 52 52 52 52 53 53 51 51 53
97 99 95 99 97 91 96 100 97 97 97 99 100 89 73 89 92 100 95 96 97 93 91 85 78 79 83 85 83 86 83 80 72 65 61 60 56 53 52 53 52 46 50 51 54 52 54 56 56 56 55 55 55 59
100 99 90 93 91 86 92 86 84 92 100 100 97 93 89 100 100 97 99 98 94 92 92 90 89 74 69 67 62 55 50 46 45 45 46 45 41 34 34 39 42 45 48 50 52 54 54 54 53 53 54 56 61 69
88 80 90 92 87 88 100 99 100 100 97 96 83 99 99 98 96 98 97 99 95 91 82 82 86 74 63 65 60 46 42 45 43 47 52 52 46 37 37 37 37 39 43 46 49 52 54 55 58 60 62 64 64 65
87 82 68 98 92 96 100 100 100 100 100 91 99 100 100 100 99 98 99 98 97 88 76 75 79 80 70 60 49 37 37 45 54 53 48 40 43 45 40 39 39 39 39 42 44 47 48 50 53 56 56 59 61 61
89 82 91 93 99 100 100 100 100 100 99 98 98 100 99 99 100 99 100 100 100 97 91 81 76 80 67 51 35 31 34 36 35 31 30 31 34 35 36 36 37 38 40 41 44 47 48 49 49 48 50 51 53 55
83 79 89 93 99 100 99 99 98 95 94 93 90 94 99 99 100 100 100 100 99 95 92 92 91 86 79 60 36 30 32 32 32 30 31 32 33 35 36 37 38 38 39 41 44 46 46 46 46 47 48 47 45 41
82 84 90 100 99 97 100 82 82 85 84 85 90 86 89 88 97 100 100 100 100 96 95 93 87 83 61 35 32 32 33 32 33 34 35 36 38 39 39 39 39 40 43 44 44 45 46 45 44 42 38 35 34 36
85 76 84 97 100 100 95 90 90 93 93 98 98 97 96 93 99 100 100 100 100 99 96 94 89 46 32 34 35 36 36 36 36 36 38 39 40 42 40 40 42 43 42 44 45 44 41 38 34 32 34 37 40 40

GFSWCAN_850_rhum_057.txt.gz
RH
89 88 88 91 96 99 99 99 99 99 96 79 75 75 73 74 76 83 95 99 98 90 68 59 56 58 69 67 85 79 99 100 99 100 70 60 61 48 42 53 50 53 64 64 56 63 58 25 26 37 54 43 44 44
86 87 91 92 96 99 99 99 99 98 99 90 71 76 79 81 84 82 97 86 95 98 69 80 69 61 76 68 74 98 77 93 64 72 53 64 65 58 45 53 53 58 43 47 40 42 34 31 45 54 54 50 52 53
94 98 98 94 95 99 99 99 99 92 100 91 67 68 72 76 80 84 95 86 94 100 97 85 75 70 78 61 67 97 84 93 81 56 78 66 69 54 65 45 48 39 53 46 60 32 42 32 48 56 57 58 58 57
100 99 100 99 99 96 99 100 99 90 96 86 69 68 70 76 78 84 90 93 97 95 88 62 68 75 50 76 76 91 84 87 96 96 85 79 73 44 56 44 43 33 36 35 40 34 31 30 53 66 63 61 62 62
99 100 98 99 100 98 94 95 99 93 90 79 74 76 79 85 90 97 97 95 94 79 79 68 64 81 78 75 80 91 99 99 99 95 98 90 56 55 51 50 51 32 34 46 46 55 54 45 58 67 65 67 69 72
99 99 95 97 97 97 95 89 93 94 84 78 81 90 96 97 98 99 99 100 94 95 89 92 79 79 86 85 83 95 99 100 100 99 92 68 67 64 79 61 36 52 57 65 59 78 75 68 67 79 78 79 79 77
99 99 99 92 99 90 94 89 92 99 96 92 94 99 99 99 99 99 94 90 96 100 96 97 88 74 85 87 93 95 99 100 98 100 98 89 72 68 69 68 78 65 65 65 77 74 70 89 86 92 90 86 84 82
100 100 100 100 99 100 95 93 97 97 99 99 99 99 99 99 100 97 79 65 65 99 99 97 80 76 79 84 93 98 99 100 100 88 91 65 60 70 100 76 62 64 65 65 72 70 74 88 98 98 98 95 96 95
99 100 100 99 89 95 91 92 95 100 100 99 99 99 99 100 99 99 95 100 100 98 95 78 76 80 76 70 68 81 89 98 96 77 77 78 74 100 93 76 79 86 79 75 73 69 80 90 90 89 91 92 96 100
100 100 100 96 86 100 96 97 97 98 99 100 100 97 99 98 98 99 99 99 99 98 94 75 58 91 70 67 67 70 78 69 83 90 99 97 93 85 79 86 91 88 83 87 81 75 85 88 90 94 99 100 100 100
100 100 100 98 100 100 99 99 100 100 100 99 99 100 99 99 98 99 98 98 98 91 73 70 67 89 96 88 74 61 74 66 66 78 98 97 91 81 77 80 87 94 95 98 100 100 100 100 100 98 100 98 100 100
100 100 99 100 100 99 100 99 100 99 98 99 98 99 100 100 100 95 90 84 69 64 76 78 70 77 85 99 95 70 76 76 77 80 85 86 82 78 83 88 94 100 100 100 97 97 99 99 97 99 100 99 97 99
100 100 99 100 100 100 99 100 99 93 88 87 85 87 78 88 96 88 86 78 87 96 92 98 96 94 97 100 97 96 97 86 71 95 91 80 70 76 83 88 98 100 98 99 99 100 100 100 96 97 98 96 96 96
100 100 100 100 99 97 98 96 98 94 83 65 72 88 87 85 80 85 92 94 98 99 100 98 98 96 99 99 98 98 95 87 86 88 89 80 85 91 98 99 96 100 100 100 100 100 100 100 98 96 96 96 96 95
84 94 84 99 100 99 90 75 66 53 70 74 68 86 81 82 88 93 98 96 98 100 100 99 97 98 96 96 94 95 95 88 84 89 86 85 92 95 97 99 100 100 100 100 100 100 96 96 95 95 96 95 94 95
67 67 79 78 81 80 77 64 54 50 79 81 83 80 83 86 88 91 96 94 100 100 99 98 97 95 93 86 87 89 89 86 87 86 91 92 96 99 100 100 98 100 100 100 100 96 94 94 94 95 95 95 95 95
76 58 46 48 48 43 43 42 53 78 80 77 85 92 92 88 91 94 96 98 98 99 96 90 86 91 64 76 80 75 85 87 86 93 94 97 98 100 98 97 97 98 100 100 99 96 96 97 98 100 100 100 100 92
98 68 64 59 48 42 42 62 74 72 80 90 81 92 92 93 94 96 99 99 99 89 77 81 60 77 82 82 82 84 88 93 96 96 98 100 100 95 96 99 99 99 99 97 96 97 98 100 98 99 99 99 98 99
77 73 73 72 52 40 72 75 68 73 87 91 91 93 93 96 97 99 98 94 84 79 72 64 73 78 82 84 85 88 93 92 93 98 100 98 96 95 95 95 96 98 99 99 100 100 100 100 96 91 89 89 89 95
68 70 64 53 44 66 73 76 71 70 78 88 88 87 88 93 97 98 94 80 72 68 73 76 83 90 88 96 98 96 98 98 96 97 99 100 100 99 100 100 100 100 100 100 100 94 90 91 96 98 99 97 98 100
76 50 46 58 68 78 74 74 82 92 91 78 85 81 91 89 90 88 83 78 75 83 81 93 96 99 96 95 96 94 95 97 98 94 95 100 100 100 100 100 97 91 90 92 90 93 96 94 95 100 100 100 100 100
62 53 74 52 73 74 74 78 86 84 78 75 71 71 82 84 81 83 73 73 86 94 97 97 98 98 99 100 100 100 98 94 93 95 96 98 95 93 93 92 89 96 96 97 97 100 100 99 100 100 100 100 100 100
51 55 58 71 82 77 82 97 80 81 69 65 63 70 75 76 72 65 75 78 92 99 99 100 100 100 100 100 100 100 100 100 100 100 100 96 97 98 93 93 96 97 92 90 94 100 100 84 76 100 98 100 100 100
45 47 68 90 77 89 85 74 62 61 62 61 62 72 72 68 63 61 75 79 94 99 99 100 100 100 100 98 94 95 93 93 96 99 88 82 83 86 90 93 99 100 98 97 100 100 100 100 90 100 100 100 100 100
60 81 90 84 77 71 72 74 70 66 74 67 71 72 74 68 70 70 72 82 91 97 100 98 96 94 97 96 97 99 93 86 85 91 93 91 93 89 91 94 100 100 100 100 100 100 100 100 100 100 100 100 100 100
85 93 81 78 76 70 66 77 75 73 73 77 77 72 74 68 73 79 72 90 94 99 100 98 95 88 85 86 89 93 98 94 90 94 91 90 91 98 94 91 91 100 82 98 100 100 100 100 100 100 100 100 87 59
82 85 82 83 81 73 76 75 70 72 76 78 71 72 69 78 82 79 94 99 99 100 100 100 97 94 96 100 96 74 46 34 46 41 31 29 27 29 90 100 100 93 69 52 82 100 100 100 100 100 100 100 100 100
77 78 80 88 82 77 78 75 76 80 78 69 60 78 78 74 80 96 100 100 100 100 100 100 100 100 98 72 52 35 30 29 31 32 34 36 32 30 30 30 31 32 35 36 44 43 66 78 100 100 100 100 100 100
81 81 68 81 74 78 81 79 78 85 89 78 71 74 80 93 100 100 100 100 100 100 100 78 64 60 53 48 42 43 72 73 100 74 89 93 100 100 36 36 36 34 36 46 51 44 48 48 62 69 84 95 94 67
86 84 75 76 77 83 91 94 94 100 98 94 94 97 99 100 100 100 100 100 100 100 100 93 90 100 84 80 36 32 30 31 30 61 100 100 94 42 36 36 35 36 37 41 56 82 63 54 64 72 84 78 98 92
85 81 74 75 81 91 98 99 98 97 96 95 94 91 96 100 100 100 99 100 92 81 80 76 80 89 80 86 100 96 87 32 30 30 32 33 35 36 37 38 39 39 40 43 46 48 48 50 72 58 55 46 38 36
85 77 73 77 86 98 100 94 88 89 90 91 96 99 99 93 94 100 95 100 100 100 100 100 100 93 39 29 29 30 31 31 32 33 35 36 37 39 40 40 40 41 43 43 45 46 45 43 40 37 35 36 38 40
81 78 77 80 89 88 96 87 75 84 83 84 95 98 100 92 91 100 97 94 99 100 100 90 70 33 30 31 32 33 34 35 35 37 39 40 40 40 39 40 41 42 44 43 39 36 34 34 35 36 37 39 41 45

GFSWCAN_850_rhum_060.txt.gz
RH
89 89 88 84 83 84 85 86 94 98 98 99 97 80 74 73 77 88 94 95 99 96 74 58 53 63 60 82 93 73 86 85 97 96 76 59 65 57 56 58 66 57 70 73 62 63 62 20 24 33 61 60 55 52
87 84 83 86 90 92 90 89 92 97 99 99 99 94 79 72 73 84 94 91 96 100 68 71 67 59 57 73 92 100 68 99 79 84 61 63 79 70 54 61 76 93 45 52 43 45 33 32 50 53 53 57 59 53
84 85 92 99 100 100 99 98 98 98 99 99 99 97 85 73 71 76 95 87 95 99 88 81 69 64 66 69 69 90 76 74 93 95 96 86 81 60 65 50 60 82 57 44 54 40 27 55 54 53 54 55 55 56
84 84 96 98 99 99 99 98 99 99 99 99 99 96 85 74 73 78 85 90 96 95 79 60 58 64 61 64 69 73 71 69 98 100 99 93 79 68 80 55 66 74 88 55 53 57 75 86 74 58 58 61 64 64
83 93 99 100 98 99 100 99 100 99 98 90 100 92 79 72 74 76 84 87 88 83 74 74 70 59 53 74 52 57 78 85 96 99 98 87 62 70 61 54 54 46 83 76 79 73 85 88 68 63 66 68 72 70
99 99 98 99 99 100 99 98 98 96 86 91 97 86 68 65 72 90 99 86 84 93 98 79 82 77 79 68 74 74 72 98 99 98 99 71 57 64 72 79 82 78 58 67 67 64 68 73 78 80 76 77 75 76
99 100 99 99 100 99 100 100 94 96 83 88 86 67 64 69 84 98 94 92 60 89 99 83 56 68 83 81 80 85 97 100 98 100 98 78 70 65 81 72 94 76 59 67 64 63 64 79 87 88 86 86 82 89
100 100 99 99 100 99 100 94 90 98 84 73 73 73 76 85 94 99 77 90 98 99 97 94 87 86 84 94 100 99 99 100 100 98 98 94 66 71 93 83 70 71 64 68 67 65 84 82 80 79 81 86 91 93
100 99 99 99 95 100 100 95 92 100 89 84 87 97 99 99 98 97 93 99 100 91 98 96 93 86 74 74 83 98 100 100 99 99 80 69 84 92 94 82 82 81 76 75 72 73 73 82 79 81 85 86 93 98
99 99 99 98 100 96 99 98 100 99 100 99 99 98 99 100 99 99 99 99 98 87 95 84 62 83 70 71 71 71 76 73 82 78 83 84 95 85 79 84 88 86 84 90 82 86 87 89 87 94 98 100 100 100
100 100 99 99 100 100 93 100 100 99 99 98 99 100 98 100 99 100 98 99 98 99 76 70 66 79 86 86 76 68 87 76 75 87 89 92 89 85 77 83 89 96 96 100 100 99 97 98 99 99 100 100 100 100
100 100 98 100 99 100 100 100 99 99 98 99 97 100 99 98 96 100 100 97 81 67 69 76 72 84 87 89 84 75 74 74 73 85 88 90 89 84 82 91 98 99 95 95 96 98 99 97 99 100 100 100 100 98
99 100 98 100 100 99 100 99 100 80 95 92 94 96 99 98 99 94 87 80 90 89 90 94 95 96 91 88 84 94 88 80 70 84 90 86 81 88 94 92 98 99 99 99 100 100 100 100 100 100 100 99 95 94
100 99 100 100 99 100 100 100 100 96 79 75 75 87 90 82 85 90 92 95 100 100 99 98 99 96 98 89 94 97 96 92 89 89 92 90 91 97 100 100 98 100 95 99 100 100 100 96 95 95 93 95 95 95
100 100 99 100 100 100 100 98 96 52 75 74 68 86 81 86 91 95 98 96 98 97 99 99 94 90 94 92 81 89 90 91 84 90 89 94 97 98 99 99 94 94 95 98 99 95 95 97 94 95 95 95 96 95
98 100 98 100 99 98 89 78 68 53 79 80 87 82 88 86 90 93 98 98 98 98 99 93 93 88 90 85 92 90 92 91 91 89 92 95 98 95 94 94 94 96 96 98 100 99 97 95 95 96 97 96 95 92
82 89 84 61 52 62 57 44 59 77 78 76 85 97 94 84 91 96 99 99 99 99 96 90 89 93 92 85 84 81 89 90 90 96 98 98 99 97 95 96 97 96 96 97 100 98 98 98 100 100 100 100 98 85
52 46 50 69 81 92 59 73 72 70 79 90 82 91 90 99 98 98 98 98 99 90 82 91 81 82 89 89 87 90 92 98 97 98 99 97 95 94 95 97 98 98 98 99 98 97 98 98 97 100 95 92 95 99
76 77 75 54 42 46 72 74 67 74 89 91 92 94 95 98 99 99 98 96 85 81 79 67 71 82 87 88 89 94 96 94 96 98 98 95 94 95 95 97 98 98 96 97 100 100 95 92 93 89 87 89 93 99
70 59 51 51 52 70 74 74 70 74 84 87 91 88 90 96 99 99 95 78 74 73 76 78 86 94 92 99 98 97 99 98 99 98 99 96 95 96 96 96 100 98 100 98 97 92 90 92 89 78 90 97 100 100
64 58 64 59 68 76 73 75 80 78 80 82 94 84 92 91 91 90 85 78 76 82 82 93 96 100 100 97 95 94 96 94 95 96 97 100 100 100 100 98 93 90 92 95 91 90 96 95 97 100 100 100 99 99
68 81 72 63 74 77 89 88 80 83 74 83 77 76 81 83 82 81 75 76 85 97 97 97 96 95 97 98 100 100 94 86 88 91 91 96 98 98 97 95 93 98 98 97 100 100 100 100 99 100 100 98 100 99
62 74 84 78 78 76 89 96 94 95 72 70 77 75 82 77 77 68 82 90 96 96 97 100 100 98 100 99 98 99 99 98 98 98 98 97 98 96 94 93 97 97 94 91 94 100 100 79 87 100 93 100 100 98
44 50 91 88 75 84 82 78 59 63 80 71 64 80 80 73 61 63 78 82 98 99 99 97 99 99 98 95 91 92 92 93 94 95 85 83 84 85 89 94 99 98 98 97 100 100 100 100 81 100 96 99 97 84
63 81 90 83 73 71 72 71 65 61 73 63 71 80 74 86 70 71 75 85 96 97 98 99 97 98 97 95 96 95 86 85 87 90 88 90 92 88 90 95 98 93 100 100 100 100 99 97 100 100 100 100 100 99
86 88 79 74 72 68 66 77 72 69 69 74 73 70 77 68 72 82 74 93 95 97 99 98 96 89 84 85 89 92 94 90 92 96 91 92 95 100 96 90 96 100 86 89 100 100 100 99 100 100 100 100 100 91
81 81 77 78 90 73 76 72 67 69 72 76 72 72 67 74 81 83 99 100 100 99 99 98 100 96 97 99 97 74 42 60 75 53 43 36 32 37 69 96 100 83 88 76 100 100 100 100 100 100 100 100 100 100
75 79 83 83 81 75 76 72 73 76 73 64 61 76 76 74 85 97 100 100 96 100 100 99 100 100 100 100 87 63 37 38 38 47 61 76 55 37 34 32 33 34 39 48 48 52 86 98 100 100 100 100 100 100
80 77 74 83 72 75 78 77 77 79 88 82 70 75 78 95 100 100 100 100 100 100 100 100 95 79 92 100 89 80 65 70 100 74 90 97 100 99 68 46 69 51 44 70 88 79 62 53 50 52 58 63 83 86
81 78 73 73 76 82 91 95 92 95 95 97 96 96 97 100 98 96 96 98 100 100 100 100 100 100 100 100 77 38 26 26 27 61 100 100 94 60 54 57 44 47 44 61 68 82 87 86 74 94 100 100 100 100
80 76 71 72 80 90 94 95 96 98 95 95 94 90 94 100 100 100 100 100 99 100 100 100 100 100 96 99 100 100 94 37 28 29 31 33 36 41 37 38 38 38 43 45 45 52 52 48 64 89 100 84 54 47
78 74 70 76 86 98 98 94 91 93 96 92 95 97 100 94 94 100 100 100 100 99 100 100 100 64 32 26 27 30 30 30 30 30 32 35 37 37 37 37 38 39 40 42 45 47 43 39 38 40 44 48 48 42
83 82 81 80 85 75 92 90 74 85 79 81 90 95 99 96 93 100 99 95 100 100 100 90 77 36 27 29 30 30 32 33 33 34 36 36 35 36 37 38 39 39 37 34 35 39 41 43 41 40 41 42 43 46